Weather History for KY50 - March, 2013

Change the Weather History Date:

Friday, March 8, 2013

  Actual Average (KPCZ) Record (KPCZ)
Temperature  
Mean Temperature 19 °F -  
Max Temperature 35 °F 37 °F 73 °F (1987)
Min Temperature 3 °F 17 °F -11 °F (1967)
Degree Days  
Heating Degree Days 46    
Moisture  
Dew Point 13 °F    
Average Humidity 78    
Maximum Humidity 92    
Minimum Humidity 56    
Precipitation  
Precipitation 0.00 in - - ()
Sea Level Pressure  
Sea Level Pressure 30.41 in    
Wind  
Wind Speed 1 mph (SSE)    
Max Wind Speed 10 mph    
Max Gust Speed -    
Visibility 8 miles    
Events Fog    
Averages and records for this station are not official NWS values.
T = Trace of Precipitation, MM = Missing Value Source: NWS Daily Summary

Daily Weather History Graph

Daily Weather History Graph

Search for Another Location

Airport or City:

Trip Planner

Search our weather history database for the weather conditions in past years. The results will help you decide how hot, cold, wet, or windy it might be!

Date:

Astronomy

Mar. 08, 2013 Rise Set
Actual Time 6:21 AM CST 5:54 PM CST
Civil Twilight 5:52 AM CST 6:23 PM CST
Nautical Twilight 5:19 AM CST 6:57 PM CST
Astronomical Twilight 4:45 AM CST 7:31 PM CST
Moon 4:11 AM CST (3/8) 2:44 PM CST (3/8)
Length of Visible Light 12h 31m
Length of Day
11h 33m
Waning Crescent, 11% of the Moon is Illuminated
Mar 8
Waning Crescent
Mar 11
New
Mar 19
First Quarter
Mar 27
Full
Apr 2
Last Quarter

Hourly Weather History & Observations

Time (CST) Temp. Windchill Dew Point Humidity Pressure Visibility Wind Dir Wind Speed Gust Speed Precip Events Conditions
12:56 AM 10.0 °F - 7.2 °F 88% 30.47 in 9.0 mi Calm Calm - N/A   Clear
1:56 AM 8.1 °F - 5.0 °F 87% 30.47 in 6.0 mi Calm Calm - N/A   Clear
2:04 AM 6.8 °F - 3.2 °F 85% 30.44 in 1.5 mi Calm Calm - N/A   Clear
2:07 AM 6.8 °F - 3.2 °F 85% 30.44 in 0.8 mi Calm Calm - N/A   Clear
2:15 AM 6.8 °F - 3.2 °F 85% 30.44 in 0.5 mi Calm Calm - N/A Fog Light Freezing Fog
2:20 AM 8.6 °F - 5.0 °F 85% 30.44 in 1.0 mi Calm Calm - N/A   Clear
2:22 AM 8.6 °F - 5.0 °F 85% 30.44 in 3.0 mi Calm Calm - N/A   Clear
2:56 AM 5.0 °F - 1.0 °F 84% 30.47 in 6.0 mi Calm Calm - N/A   Clear
3:56 AM 5.0 °F - 2.1 °F 88% 30.47 in 8.0 mi Calm Calm - N/A   Clear
4:56 AM 5.0 °F - 2.1 °F 88% 30.48 in 8.0 mi Calm Calm - N/A   Clear
5:56 AM 3.2 °F - -0.4 °F 85% 30.43 in 8.0 mi Calm Calm - N/A   Clear
6:56 AM 4.1 °F - 0.1 °F 84% 30.49 in 8.0 mi Calm Calm - N/A   Clear
7:56 AM 11.1 °F - 8.1 °F 87% 30.49 in 7.0 mi Calm Calm - N/A   Clear
8:56 AM 19.0 °F - 17.1 °F 92% 30.48 in 10.0 mi Calm Calm - N/A   Clear
9:56 AM 28.0 °F 20.8 °F 20.1 °F 72% 30.47 in 10.0 mi South 6.9 mph - N/A   Clear
10:56 AM 32.0 °F 23.6 °F 21.0 °F 64% 30.45 in 10.0 mi South 10.4 mph - N/A   Clear
11:56 AM 33.8 °F 26.4 °F 21.2 °F 60% 30.41 in 10.0 mi South 9.2 mph - N/A   Clear
12:56 PM 34.9 °F 29.0 °F 22.1 °F 60% 30.43 in 10.0 mi SSE 6.9 mph - N/A   Clear
1:56 PM 34.9 °F 29.0 °F 21.0 °F 57% 30.39 in 10.0 mi SSE 6.9 mph - N/A   Clear
2:56 PM 35.6 °F 30.7 °F 21.2 °F 56% 30.35 in 10.0 mi SSE 5.8 mph - N/A   Clear
3:56 PM 34.9 °F 30.8 °F 23.0 °F 62% 30.37 in 10.0 mi SSE 4.6 mph - N/A   Clear
4:56 PM 34.9 °F - 23.0 °F 62% 30.37 in 10.0 mi Calm Calm - N/A   Clear
5:56 PM 32.0 °F - 21.2 °F 64% 30.34 in 10.0 mi Calm Calm - N/A   Clear
6:56 PM 30.0 °F - 22.1 °F 72% 30.38 in 10.0 mi Calm Calm - N/A   Clear
7:56 PM 26.1 °F - 21.0 °F 81% 30.37 in 10.0 mi Calm Calm - N/A   Clear
8:56 PM 25.2 °F - 20.1 °F 81% 30.35 in 10.0 mi Calm Calm - N/A   Clear
9:56 PM 26.1 °F - 21.0 °F 81% 30.32 in 10.0 mi Calm Calm - N/A   Clear
10:56 PM 24.1 °F - 20.1 °F 85% 30.31 in 9.0 mi Calm Calm - N/A   Clear
11:56 PM 23.0 °F - 19.4 °F 86% 30.26 in 8.0 mi Calm Calm - N/A   Clear